Location: Unspecified
(0.0000°N, 0.0000°E)
Time: 22:41:24
(UTC+00:00)

COSMOS 2391 - Pass Details

Date: 28 June 2024
Orbit: 1465 x 1506 km, 82.5° (Epoch: 21 July)

Event Time Altitude Azimuth Distance (km) Brightness Sun altitude
Rises 20:55:18 0° 21° (NNE) 4,614 11.1 -38.8°
Reaches altitude 10° 20:58:47 10° 33° (NNE) 3,641 10.4 -39.5°
Enters shadow 20:58:55 10° 34° (NE) 3,610 10.4 -39.5°
